Date String (YYYY-MM-DD hh:mm:ss) UTC,Instrument flags,absolute air pressure of the measurement (hPa),sample flow rate (lpm),inlet stack bypass flow (lpm),air temperature of the measurement (°C),ambient temperature measured by the external sensor (°C),aerosol sample conditioner tube jacket temperature (°C),OPC LED temperature (°C),internal box temperature (°C),relative humidity of the measurement (%),span deviation,mass concentration of particles derived from Lorenz-Mie calculation of OPC scattering (μg/m³),mass concentration of particles derived from Lorenz-Mie calculation of OPC scattering (μg/m³),mass concentration of particles derived from Lorenz-Mie calculation of OPC scattering (μg/m³)
DateTimeUTC,F1_M11,P_M11,Q1_M11,Q2_M11,T1_M11,T2_M11,T3_M11,T4_M11,T5_M11,U1_M11,ZSPAN_M11,X2_M11,X0_M11,X1_M11
2024-04-13 20:00:00,SystemResetWarning,0826.9,5.00,000.00,024.8,023.3,000.0,033.2,026.4,011.7,0000.0,0003.94,0010.85,0002.44
2024-04-13 20:01:00,SystemResetWarning,0826.9,5.00,000.00,024.8,023.6,000.0,033.2,026.6,011.4,0000.0,0003.99,0010.84,0002.44
2024-04-13 20:02:00,SystemResetWarning,0826.9,5.00,000.00,024.9,023.9,000.0,033.2,026.7,011.1,0000.0,0004.12,0011.81,0002.47
2024-04-13 20:03:00,SystemResetWarning,0826.9,4.99,000.00,025.0,024.1,000.0,033.2,026.8,010.9,0000.0,0004.20,0012.47,0002.51
2024-04-13 20:04:00,SystemResetWarning,0826.9,4.99,000.00,025.1,024.4,000.0,033.2,027.0,010.9,0000.0,0004.22,0013.32,0002.52
2024-04-13 20:05:00,SystemResetWarning,0826.9,5.00,000.00,025.2,024.5,000.0,033.2,027.1,010.6,0000.0,0004.16,0012.67,0002.52
2024-04-13 20:06:00,SystemResetWarning,0826.9,5.00,000.00,025.2,024.7,000.0,033.3,027.1,011.2,0000.0,0004.18,0013.02,0002.54
2024-04-13 20:07:00,SystemResetWarning,0826.9,5.00,000.00,025.3,024.8,000.0,033.3,027.2,011.2,0000.0,0004.20,0013.29,0002.56
2024-04-13 20:08:00,SystemResetWarning,0826.9,5.00,000.00,025.4,024.7,000.0,033.4,027.1,011.0,0000.0,0004.20,0013.29,0002.57
2024-04-13 20:09:00,SystemResetWarning,0826.9,5.00,000.00,025.1,023.0,000.0,033.4,026.1,010.4,0000.0,0004.21,0013.23,0002.58
2024-04-13 20:10:00,SystemResetWarning,0826.8,5.00,000.00,024.7,021.7,000.0,033.4,025.4,010.6,0000.0,0004.21,0013.52,0002.59
2024-04-13 20:11:00,SystemResetWarning,0826.8,5.01,000.00,024.6,022.0,000.0,033.4,025.5,011.1,0000.0,0004.21,0013.95,0002.64
2024-04-13 20:12:00,SystemResetWarning,0826.9,5.00,000.00,024.6,022.4,000.0,033.2,025.7,011.2,0000.0,0004.21,0014.24,0002.70
2024-04-13 20:13:00,SystemResetWarning,0826.8,4.99,000.00,024.6,022.8,000.0,033.1,026.1,010.9,0000.0,0004.11,0013.44,0002.70
2024-04-13 20:14:00,SystemResetWarning,0826.8,5.00,000.00,024.7,023.2,000.0,033.1,026.3,010.9,0000.0,0004.06,0013.43,0002.70
2024-04-13 20:15:00,SystemResetWarning,0826.8,5.00,000.00,024.7,023.5,000.0,033.1,026.5,010.9,0000.0,0004.06,0012.66,0002.71
2024-04-13 20:16:00,SystemResetWarning,0826.9,5.01,000.00,024.8,023.7,000.0,033.1,026.7,011.1,0000.0,0004.13,0012.51,0002.73
2024-04-13 20:17:00,SystemResetWarning,0826.9,4.99,000.00,024.9,024.0,000.0,033.1,026.8,011.4,0000.0,0004.12,0011.89,0002.73
2024-04-13 20:18:00,SystemResetWarning,0826.9,4.99,000.00,025.0,024.2,000.0,033.1,026.8,011.0,0000.0,0004.15,0011.26,0002.75
2024-04-13 20:19:00,SystemResetWarning,0826.9,5.00,000.00,025.0,024.4,000.0,033.1,027.0,011.4,0000.0,0004.11,0011.14,0002.75
2024-04-13 20:20:00,SystemResetWarning,0826.9,5.00,000.00,025.1,024.5,000.0,033.2,027.1,011.4,0000.0,0004.04,0010.76,0002.72
2024-04-13 20:21:00,SystemResetWarning,0826.9,5.00,000.00,025.2,024.7,000.0,033.2,027.2,011.8,0000.0,0004.09,0010.72,0002.74
2024-04-13 20:22:00,SystemResetWarning,0826.9,5.01,000.00,025.3,024.8,000.0,033.3,027.2,011.0,0000.0,0004.13,0010.57,0002.74
2024-04-13 20:23:00,SystemResetWarning,0826.9,5.00,000.00,025.4,024.9,000.0,033.3,027.3,011.0,0000.0,0004.13,0010.73,0002.72
2024-04-13 20:24:00,SystemResetWarning,0826.9,4.99,000.00,025.3,023.9,000.0,033.4,026.7,011.5,0000.0,0004.17,0010.98,0002.73
2024-04-13 20:25:00,SystemResetWarning,0826.8,5.00,000.00,024.9,021.9,000.0,033.4,025.4,011.3,0000.0,0004.19,0011.31,0002.75
2024-04-13 20:26:00,SystemResetWarning,0826.8,5.02,000.00,024.6,021.6,000.0,033.4,025.2,011.4,0000.0,0004.22,0011.32,0002.77
2024-04-13 20:27:00,SystemResetWarning,0826.8,4.99,000.00,024.5,022.1,000.0,033.3,025.5,012.0,0000.0,0004.22,0011.31,0002.78
2024-04-13 20:28:00,SystemResetWarning,0826.9,5.00,000.00,024.5,022.5,000.0,033.1,025.8,012.7,0000.0,0004.21,0011.33,0002.78
2024-04-13 20:29:00,SystemResetWarning,0826.8,5.00,000.00,024.5,022.9,000.0,033.1,026.1,012.8,0000.0,0004.22,0011.48,0002.78
2024-04-13 20:30:00,SystemResetWarning,0826.9,5.02,000.00,024.6,023.2,000.0,033.1,026.3,012.0,0000.0,0004.23,0011.51,0002.76
2024-04-13 20:31:00,SystemResetWarning,0826.9,5.00,000.00,024.7,023.5,000.0,033.0,026.5,012.0,0000.0,0004.30,0011.63,0002.78
2024-04-13 20:32:00,SystemResetWarning,0826.9,5.00,000.00,024.8,023.8,000.0,033.0,026.6,012.1,0000.0,0004.26,0011.47,0002.77
2024-04-13 20:33:00,SystemResetWarning,0826.9,5.00,000.00,024.9,024.0,000.0,033.1,026.7,011.8,0000.0,0004.24,0011.21,0002.76
2024-04-13 20:34:00,SystemResetWarning,0826.8,5.00,000.00,024.9,024.2,000.0,033.1,026.8,012.4,0000.0,0004.24,0011.59,0002.74
2024-04-13 20:35:00,SystemResetWarning,0826.9,5.01,000.00,025.0,024.4,000.0,033.1,027.0,011.6,0000.0,0004.20,0011.34,0002.70
2024-04-13 20:36:00,SystemResetWarning,0826.8,5.00,000.00,025.1,024.5,000.0,033.1,027.1,012.0,0000.0,0004.22,0011.27,0002.70
2024-04-13 20:37:00,SystemResetWarning,0826.9,4.99,000.00,025.2,024.7,000.0,033.2,027.2,012.1,0000.0,0004.23,0011.08,0002.74
2024-04-13 20:38:00,SystemResetWarning,0826.8,5.00,000.00,025.3,024.8,000.0,033.2,027.3,011.6,0000.0,0004.21,0011.48,0002.77
2024-04-13 20:39:00,SystemResetWarning,0826.8,5.00,000.00,025.3,024.9,000.0,033.3,027.3,011.4,0000.0,0004.21,0011.73,0002.78
2024-04-13 20:40:00,SystemResetWarning,0826.8,4.99,000.00,025.3,023.9,000.0,033.4,026.6,011.5,0000.0,0004.22,0011.66,0002.82
2024-04-13 20:41:00,SystemResetWarning,0826.7,5.00,000.00,024.9,021.9,000.0,033.4,025.5,011.7,0000.0,0004.22,0011.99,0002.86
2024-04-13 20:42:00,SystemResetWarning,0826.7,5.02,000.00,024.6,021.6,000.0,033.4,025.3,012.3,0000.0,0004.18,0013.01,0002.88
2024-04-13 20:43:00,SystemResetWarning,0826.8,5.00,000.00,024.5,022.0,000.0,033.2,025.5,012.7,0000.0,0004.18,0013.35,0002.89
2024-04-13 20:44:00,SystemResetWarning,0826.8,4.99,000.00,024.5,022.4,000.0,033.1,025.8,012.1,0000.0,0004.20,0013.77,0002.90
2024-04-13 20:45:00,SystemResetWarning,0826.8,5.00,000.00,024.6,022.8,000.0,033.1,026.1,012.3,0000.0,0004.20,0013.43,0002.91
2024-04-13 20:46:00,SystemResetWarning,0826.8,4.99,000.00,024.6,023.2,000.0,033.0,026.3,012.4,0000.0,0004.23,0014.72,0002.93
2024-04-13 20:47:00,SystemResetWarning,0826.8,4.99,000.00,024.7,023.5,000.0,033.0,026.5,012.4,0000.0,0004.23,0014.71,0002.94
2024-04-13 20:48:00,SystemResetWarning,0826.8,5.01,000.00,024.8,023.8,000.0,033.0,026.6,012.2,0000.0,0004.23,0015.44,0002.90
2024-04-13 20:49:00,SystemResetWarning,0826.8,5.01,000.00,024.9,024.0,000.0,033.0,026.7,012.3,0000.0,0004.29,0016.14,0002.89
2024-04-13 20:50:00,SystemResetWarning,0826.8,5.01,000.00,024.9,024.2,000.0,033.1,026.8,012.0,0000.0,0004.32,0016.06,0002.91
2024-04-13 20:51:00,SystemResetWarning,0826.8,4.99,000.00,025.0,024.4,000.0,033.1,027.0,012.3,0000.0,0004.30,0015.94,0002.91
2024-04-13 20:52:00,SystemResetWarning,0826.8,5.00,000.00,025.1,024.5,000.0,033.1,027.1,011.8,0000.0,0004.30,0015.85,0002.91
2024-04-13 20:53:00,SystemResetWarning,0826.8,4.99,000.00,025.2,024.7,000.0,033.2,027.1,011.5,0000.0,0004.32,0014.46,0002.92
2024-04-13 20:54:00,SystemResetWarning,0826.8,5.00,000.00,025.3,024.8,000.0,033.2,027.2,010.9,0000.0,0004.32,0014.39,0002.92
2024-04-13 20:55:00,SystemResetWarning,0826.8,5.00,000.00,025.3,024.9,000.0,033.3,027.3,011.3,0000.0,0004.31,0015.58,0002.96
2024-04-13 20:56:00,SystemResetWarning,0826.8,5.00,000.00,025.4,024.8,000.0,033.3,027.2,011.3,0000.0,0004.36,0016.32,0002.97
2024-04-13 20:57:00,SystemResetWarning,0826.7,4.98,000.00,025.1,022.8,000.0,033.4,026.1,011.2,0000.0,0004.42,0015.72,0002.99
2024-04-13 20:58:00,SystemResetWarning,0826.6,5.02,000.00,024.7,021.4,000.0,033.4,025.2,011.1,0000.0,0004.42,0015.34,0003.00
2024-04-13 20:59:00,SystemResetWarning,0826.6,5.00,000.00,024.5,021.8,000.0,033.3,025.3,011.7,0000.0,0004.42,0016.14,0003.02
